Weather History for Evanston, WY

Change the Weather History Date:

Wednesday, September 18, 2013

  Actual Average Record
Temperature  
Mean Temperature 54 °F 54 °F  
Max Temperature 62 °F 68 °F 82 °F (2014)
Min Temperature 46 °F 41 °F 25 °F (2003)
Degree Days  
Heating Degree Days 11 11  
Month to date heating degree days 70 140  
Since 1 July heating degree days 84 243  
Cooling Degree Days 0 0  
Month to date cooling degree days 26 0  
Year to date cooling degree days 348 157  
Growing Degree Days 2 (Base 50)    
Moisture  
Dew Point 35 °F    
Average Humidity 57    
Maximum Humidity 93    
Minimum Humidity 20    
Precipitation  
Precipitation 0.00 in 0.05 in 0.05 in (2002)
Month to date precipitation 1.33 0.74  
Year to date precipitation 3.91 8.77  
Sea Level Pressure  
Sea Level Pressure 29.83 in    
Wind  
Wind Speed 12 mph (West)    
Max Wind Speed 23 mph    
Max Gust Speed 30 mph    
Visibility 10 miles    
Events Rain    
T = Trace of Precipitation, MM = Missing Value Source: NWS Daily Summary

Daily Weather History Graph

Daily Weather History Graph

Search for Another Location

Airport:

Trip Planner

Search our weather history database for the weather conditions in past years. The results will help you decide how hot, cold, wet, or windy it might be!

Date:

Astronomy

Sep. 18, 2013 Rise Set
Actual Time 7:07 AM MDT 7:27 PM MDT
Civil Twilight 6:40 AM MDT 7:55 PM MDT
Nautical Twilight 6:07 AM MDT 8:27 PM MDT
Astronomical Twilight 5:34 AM MDT 9:00 PM MDT
Moon 6:52 PM MDT (9/18) 6:14 AM MDT (9/18)
Length of Visible Light 13h 14m
Length of Day
12h 19m
Waxing Gibbous, 99% of the Moon is Illuminated
Sep 18
Waxing Gibbous
Sep 19
Full
Sep 26
Last Quarter
Oct 4
New
Oct 11
First Quarter

Hourly Weather History & Observations

Time (MDT) Temp. Windchill Dew Point Humidity Pressure Visibility Wind Dir Wind Speed Gust Speed Precip Events Conditions
12:06 AM 57.2 °F - 39.2 °F 51% 29.89 in 7.0 mi SW 29.9 mph 63.3 mph 0.00 in Rain Rain
12:15 AM 60.8 °F - 37.4 °F 42% 29.88 in 10.0 mi SW 32.2 mph 47.2 mph 0.00 in Rain Light Rain
12:53 AM 57.9 °F - 39.0 °F 49% 29.62 in 10.0 mi West 11.5 mph 17.3 mph 0.00 in   Scattered Clouds
1:53 AM 51.1 °F - 45.0 °F 80% 29.64 in 10.0 mi NNW 11.5 mph 19.6 mph N/A   Clear
2:53 AM 55.9 °F - 42.1 °F 60% 29.62 in 10.0 mi Calm Calm - N/A   Mostly Cloudy
3:53 AM 55.0 °F - 42.1 °F 62% 29.62 in 10.0 mi South 5.8 mph - N/A   Clear
4:53 AM 51.1 °F - 44.1 °F 77% 29.66 in 10.0 mi NNW 9.2 mph - N/A   Clear
5:53 AM 46.9 °F - 45.0 °F 93% 29.71 in 10.0 mi NW 5.8 mph - N/A   Clear
6:53 AM 48.0 °F - 44.1 °F 86% 29.75 in 10.0 mi NNW 6.9 mph - N/A   Clear
7:00 AM 48.2 °F - 44.6 °F 87% 30.00 in 10.0 mi NNW 6.9 mph - N/A   Scattered Clouds
7:53 AM 46.9 °F - 44.1 °F 90% 29.81 in 10.0 mi NW 5.8 mph - N/A   Partly Cloudy
8:53 AM 48.9 °F - 43.0 °F 80% 29.82 in 10.0 mi NW 4.6 mph - N/A   Clear
9:53 AM 53.1 °F - 42.1 °F 66% 29.81 in 10.0 mi WSW 8.1 mph - N/A   Clear
10:53 AM 55.9 °F - 34.0 °F 44% 29.81 in 10.0 mi West 16.1 mph 24.2 mph N/A   Clear
11:53 AM 57.9 °F - 34.0 °F 41% 29.82 in 10.0 mi West 21.9 mph 26.5 mph N/A   Clear
12:53 PM 59.0 °F - 34.0 °F 39% 29.81 in 10.0 mi West 20.7 mph 27.6 mph N/A   Clear
1:53 PM 61.0 °F - 30.0 °F 31% 29.84 in 10.0 mi West 15.0 mph 26.5 mph N/A   Partly Cloudy
2:53 PM 61.0 °F - 24.1 °F 24% 29.82 in 10.0 mi West 23.0 mph 29.9 mph N/A   Clear
3:53 PM 59.0 °F - 21.0 °F 23% 29.83 in 10.0 mi West 21.9 mph 27.6 mph N/A   Clear
4:53 PM 59.0 °F - 21.9 °F 24% 29.86 in 10.0 mi West 16.1 mph 27.6 mph N/A   Clear
5:53 PM 57.0 °F - 21.9 °F 26% 29.89 in 10.0 mi West 17.3 mph 21.9 mph N/A   Clear
6:53 PM 54.0 °F - 26.1 °F 34% 29.91 in 10.0 mi West 13.8 mph - N/A   Clear
7:53 PM 48.9 °F - 26.1 °F 41% 29.95 in 10.0 mi West 12.7 mph - N/A   Clear
8:53 PM 46.0 °F 41.9 °F 30.0 °F 54% 29.99 in 10.0 mi West 8.1 mph - N/A   Clear
9:53 PM 43.0 °F 40.3 °F 30.9 °F 62% 30.01 in 10.0 mi WSW 4.6 mph - N/A   Clear
10:53 PM 43.0 °F 40.3 °F 30.9 °F 62% 30.00 in 10.0 mi WSW 4.6 mph - N/A   Clear
11:53 PM 42.1 °F 38.4 °F 28.0 °F 58% 30.00 in 10.0 mi WSW 5.8 mph - N/A   Clear